[[{"header":{"parameterUnit":"m.s-1","parameterCategory":2,"la1":30.2991,"la2":30.254,"lo1":-89.0895,"lo2":-89.0444,"dy":0.0017,"dx":0.0017,"nx":28,"ny":28,"refTime":"2024-05-01T03:00:00:Z","depth":"0","parameterNumber":2,"parameterNumberName":"U-component_of_CURRENTS"},"data":[0,0,0,0,0,0,0,0,0,0,0,0,0,0,0,0,0,0,0,0,0,0,0,0,0,0,0,0,0,0,0,0,0,0,0,0,0,0,0,0,0,0,0,0,0,0,0,0,0,0,0,0,0,0,0,0,0,0,0.2121,0.2122,0,0.2182,0.2183,0.2184,0.2217,0.2216,0.2216,0.2216,0.2374,0.2378,0.2383,0,0,0,0,0,0,0,0,0,0,0,0,0,0.2117,0.2116,0.2121,0.2122,0.2122,0.2182,0.2183,0.2185,0.2217,0.2216,0.2216,0.2216,0.2372,0.2378,0.2383,0,0,0,0,0,0,0,0,0,0,0,0,0,0.2145,0.2116,0.2121,0.2143,0.2146,0.2182,0.2183,0.2185,0.2217,0.2216,0.2216,0.2216,0.2371,0.2377,0.2384,0.2432,0,0,0.2404,0.2407,0,0,0,0,0,0,0,0,0.2143,0.2146,0.2139,0.2142,0.2144,0.2189,0.224,0.2271,0.2217,0.2193,0.2216,0.2215,0.2319,0.233,0.2345,0.2439,0.2446,0.2405,0.2409,0.2411,0.2413,0,0,0,0,0,0,0,0.2141,0.2144,0.2149,0.214,0.2143,0.2179,0.2182,0.2246,0.2262,0.2195,0.2197,0.2199,0.2322,0.2339,0.235,0.2448,0.2404,0.241,0.2414,0.2417,0.2603,0.2603,0,0,0,0,0,0,0.2123,0.2141,0.2147,0.215,0.2139,0.2178,0.2182,0.2177,0.2259,0.2269,0.2199,0.22,0.2328,0.2342,0.2355,0.244,0.2411,0.2418,0.2421,0.2602,0.2603,0.2604,0,0,0,0,0,0,0.2123,0.2123,0.2144,0.2145,0.215,0.2178,0.2173,0.2179,0.2199,0.226,0.2273,0.2213,0.2328,0.2346,0.2424,0.2446,0.2421,0.2427,0.26,0.2602,0.2603,0.2596,0,0,0,0,0,0,0.2122,0.2122,0.2119,0.2144,0.2149,0.2174,0.2173,0.218,0.2199,0.2201,0.2277,0.229,0.2329,0.2414,0.2431,0.2454,0.2432,0.2599,0.2601,0.2603,0.2595,0.2597,0.2599,0,0,0,0,0,0.2122,0.2123,0.2119,0.212,0.2141,0.2175,0.2182,0.2203,0.22,0.2219,0.2269,0.2288,0.2437,0.2421,0.244,0.2466,0.2598,0.2601,0.2603,0.2594,0.2596,0.2599,0,0,0,0,0,0,0.2129,0.2126,0.2123,0.2124,0.2148,0.2179,0.2195,0.2205,0.2257,0.2259,0.2313,0.2332,0.2406,0.2438,0.2419,0.2523,0.2516,0.2522,0.2503,0.2506,0.2508,0.2486,0.2437,0,0,0,0,0,0.2123,0.2117,0.2132,0.2135,0.2144,0.2168,0.2184,0.2196,0.2239,0.2259,0.2307,0.2363,0.243,0.2468,0.2526,0.2592,0.2587,0.2617,0.2618,0.262,0.2614,0.2639,0.2642,0.2611,0.2611,0.2611,0,0,0.2125,0.2124,0.2121,0.2135,0.2152,0.2174,0.2178,0.2202,0.2224,0.2272,0.2324,0.2377,0.2449,0.252,0.2555,0.255,0.2619,0.2623,0.2623,0.2617,0.2642,0.2644,0.2647,0.2612,0.2612,0.2612,0,0,0.2131,0.2126,0.2125,0.2143,0.2162,0.2181,0.2186,0.2217,0.2237,0.2293,0.2334,0.2393,0.2488,0.2539,0.258,0.2628,0.2629,0.2649,0.2645,0.267,0.2672,0.2674,0.2636,0.2635,0.2649,0.2649,0.2649,0,0.2139,0.213,0.2136,0.2147,0.2162,0.2182,0.2199,0.2228,0.2281,0.2309,0.2308,0.244,0.2494,0.2588,0.2601,0.2632,0.2626,0.2632,0.267,0.2672,0.2675,0.2636,0.2635,0.2649,0.2649,0.2649,0.2649,0,0.2142,0.2142,0.2149,0.216,0.2185,0.2203,0.2235,0.2264,0.2283,0.2315,0.2396,0.2462,0.2534,0.2566,0.2602,0.2658,0.264,0.2668,0.2659,0.2677,0.2635,0.2634,0.2649,0.2649,0.2649,0.2649,0,0,0.2144,0.2147,0.2149,0.2154,0.2189,0.2209,0.225,0.2298,0.2328,0.2376,0.2417,0.2521,0.254,0.2586,0.2635,0.266,0.2659,0.2669,0.267,0.2619,0.2668,0.2602,0.2594,0.27,0.2701,0.2702,0.2619,0,0.2148,0.2153,0.2161,0.2185,0.2197,0.2229,0.2266,0.2315,0.2358,0.2405,0.2466,0.253,0.2554,0.2588,0.2617,0.2664,0.2662,0.2675,0.2669,0.2667,0.2598,0.2594,0.2475,0.2389,0.2618,0.2618,0.2617,0,0.2149,0.2152,0.2162,0.2188,0.2197,0.222,0.2279,0.2317,0.2392,0.2426,0.2488,0.2529,0.2585,0.2593,0.264,0.2649,0.2647,0.2665,0.2663,0.2604,0.2601,0.2417,0.2378,0.2301,0.2616,0.2616,0.2616,0,0.2139,0.2157,0.2158,0.2168,0.2204,0.2222,0.2253,0.2327,0.2367,0.2438,0.2467,0.2534,0.2565,0.2589,0.2617,0.2628,0.2646,0.2663,0.2589,0.2582,0.248,0.2463,0.2357,0.2671,0.2671,0.2672,0.2672,0,0.2135,0.2141,0.215,0.2153,0.2173,0.221,0.2251,0.2296,0.2365,0.2409,0.2471,0.251,0.2571,0.2593,0.2603,0.2582,0.2626,0.2571,0.2565,0.247,0.2454,0.2384,0.2364,0.2668,0.2669,0.267,0.267,0,0.212,0.2123,0.2129,0.2154,0.2164,0.2181,0.2239,0.2272,0.234,0.2393,0.241,0.2492,0.2518,0.2552,0.2585,0.2554,0.2453,0.2531,0.2383,0.2361,0.2199,0.2184,0.1968,0.1919,0.2404,0.2402,0.24,0,0.2108,0.2105,0.2118,0.212,0.2127,0.2159,0.218,0.2253,0.2292,0.238,0.2397,0.2447,0.2478,0.2481,0.2451,0.2413,0.237,0.226,0.2265,0.2154,0.2134,0.2044,0.2014,0.2105,0.2101,0.2098,0.2095,0,0.2089,0.2089,0.2088,0.2089,0.21,0.2116,0.2154,0.218,0.2258,0.2288,0.2334,0.2365,0.2385,0.2307,0.2267,0.2239,0.2111,0.219,0.2131,0.1925,0.1765,0.1727,0.2161,0.2066,0.2069,0.2071,0.2073,0.2074,0.2071,0.206,0.2052,0.2044,0.2055,0.2055,0.2041,0.2084,0.2107,0.2122,0.2221,0.2206,0.2173,0.2112,0.2063,0.1878,0.1915,0.1781,0.1776,0.1696,0.1632,0.1972,0.1853,0.1855,0.1856,0.1858,0.1859,0,0.2027,0.2011,0.2007,0.1979,0.1954,0.1987,0.1998,0.1965,0.1936,0.1984,0.1999,0.1928,0.1833,0.1786,0.1613,0.1481,0.1416,0.1408,0.1268,0.127,0.1612,0.1588,0.1339,0.1339,0.1339,0.134,0.134,0.134,0.2004,0.1964,0.1946,0.1875,0.1856,0.1792,0.1774,0.1738,0.1746,0.1668,0.1611,0.1624,0.157,0.1374,0.1197,0.1166,0.1062,0.0939,0.0989,0.1252,0.1287,0.132,0.1292,0.0986,0.0986,0.0574,0.0571,0.0569]},{"header":{"parameterUnit":"m.s-1","parameterCategory":2,"la1":30.2991,"la2":30.254,"lo1":-89.0895,"lo2":-89.0444,"dy":0.0017,"dx":0.0017,"nx":28,"ny":28,"refTime":"2024-05-01T03:00:00:Z","depth":"0","parameterNumber":3,"parameterNumberName":"V-component_of_CURRENTS"},"data":[0,0,0,0,0,0,0,0,0,0,0,0,0,0,0,0,0,0,0,0,0,0,0,0,0,0,0,0,0,0,0,0,0,0,0,0,0,0,0,0,0,0,0,0,0,0,0,0,0,0,0,0,0,0,0,0,0,0,0.0286,0.0286,0,0.0258,0.0258,0.0257,0.0226,0.0226,0.0226,0.0226,0.0115,0.0112,0.011,0,0,0,0,0,0,0,0,0,0,0,0,0,0.0266,0.0266,0.0286,0.0286,0.0286,0.0259,0.0258,0.0257,0.0226,0.0226,0.0226,0.0226,0.0116,0.0113,0.0109,0,0,0,0,0,0,0,0,0,0,0,0,0,0.0258,0.0266,0.0286,0.0269,0.0268,0.0259,0.0258,0.0257,0.0226,0.0226,0.0226,0.0226,0.0117,0.0113,0.0109,0.009,0,0,0.0096,0.0095,0,0,0,0,0,0,0,0,0.0258,0.0258,0.0272,0.027,0.0269,0.0248,0.021,0.0198,0.0227,0.0239,0.0226,0.0225,0.0154,0.0147,0.014,0.0085,0.008,0.0096,0.0094,0.0092,0.0091,0,0,0,0,0,0,0,0.0259,0.0259,0.0273,0.0272,0.027,0.0247,0.0246,0.0208,0.0195,0.0238,0.0237,0.0238,0.0152,0.0144,0.0137,0.0079,0.0096,0.0092,0.009,0.0088,0.0035,0.0036,0,0,0,0,0,0,0.027,0.026,0.0274,0.0272,0.0265,0.0248,0.0246,0.0253,0.0197,0.019,0.0238,0.0236,0.0151,0.0141,0.0132,0.0136,0.0092,0.0088,0.0086,0.0034,0.0035,0.0036,0,0,0,0,0,0,0.027,0.0272,0.0275,0.0267,0.0266,0.0249,0.0256,0.0252,0.0249,0.0199,0.0189,0.0239,0.015,0.0138,0.0118,0.013,0.0086,0.0082,0.0033,0.0034,0.0036,0.0125,0,0,0,0,0,0,0.027,0.0272,0.0278,0.0268,0.0267,0.028,0.0257,0.0252,0.0251,0.0249,0.0196,0.0186,0.0149,0.0125,0.0114,0.0124,0.0079,0.0031,0.0033,0.0035,0.012,0.0129,0.0137,0,0,0,0,0,0.0269,0.0281,0.0279,0.0281,0.0277,0.0281,0.0278,0.0263,0.0252,0.0256,0.0229,0.0188,0.0129,0.0122,0.0109,0.0119,0.003,0.0033,0.0035,0.0117,0.0127,0.0136,0,0,0,0,0,0,0.0272,0.0279,0.0276,0.0289,0.029,0.0277,0.0278,0.027,0.0252,0.0247,0.0199,0.0187,0.0172,0.0136,0.013,0.0111,0.0073,0.0073,0.014,0.0149,0.0157,0.0167,0.0076,0,0,0,0,0,0.0278,0.0291,0.0292,0.0302,0.0305,0.0294,0.0292,0.0285,0.027,0.0262,0.0229,0.0195,0.0171,0.0155,0.0123,0.0111,0.0086,0.011,0.0118,0.0125,0.0125,0.0111,0.0117,0.0044,0.0044,0.0044,0,0,0.0281,0.0288,0.0294,0.0304,0.0301,0.0314,0.0291,0.0297,0.0306,0.0251,0.0248,0.0218,0.0174,0.0166,0.0156,0.0138,0.0136,0.0128,0.0134,0.0131,0.0114,0.0121,0.0127,0.0045,0.0045,0.0045,0,0,0.0297,0.0302,0.0319,0.0325,0.0332,0.0329,0.0336,0.0329,0.0326,0.0324,0.029,0.0277,0.0233,0.0214,0.0196,0.0229,0.0178,0.0215,0.0262,0.0248,0.0254,0.0259,0.0253,0.0256,0.022,0.0221,0.0221,0,0.0299,0.0325,0.0324,0.0342,0.0352,0.0341,0.0362,0.0359,0.0347,0.0352,0.0334,0.0295,0.0258,0.0254,0.0269,0.0246,0.0231,0.023,0.0259,0.0263,0.0267,0.0259,0.0262,0.0225,0.0225,0.0224,0.0224,0,0.0331,0.035,0.0361,0.0385,0.0394,0.0411,0.0413,0.0419,0.0414,0.0413,0.041,0.037,0.0349,0.0338,0.0312,0.032,0.03,0.0271,0.0237,0.028,0.0269,0.027,0.0232,0.023,0.0229,0.0228,0,0,0.034,0.0377,0.0381,0.0403,0.042,0.0435,0.0453,0.0474,0.0497,0.0478,0.0498,0.0466,0.0448,0.0427,0.0392,0.038,0.0398,0.0342,0.0339,0.034,0.0375,0.0377,0.0378,0.0374,0.0374,0.0375,0.0364,0,0.0367,0.0414,0.0424,0.0468,0.0494,0.0495,0.0517,0.0532,0.0541,0.0557,0.0525,0.0523,0.0481,0.0473,0.046,0.0409,0.0403,0.0404,0.0329,0.0327,0.0326,0.0379,0.0431,0.0427,0.0365,0.0365,0.0365,0,0.0397,0.0428,0.0477,0.0521,0.0533,0.0554,0.0597,0.0617,0.0634,0.064,0.0637,0.0607,0.0589,0.0543,0.0491,0.0493,0.0445,0.0404,0.0403,0.0371,0.0331,0.0369,0.0431,0.0417,0.0366,0.0366,0.0366,0,0.0417,0.0466,0.0511,0.0525,0.0569,0.0591,0.0614,0.0644,0.0681,0.0693,0.0712,0.0682,0.0668,0.0605,0.0525,0.0509,0.0465,0.0428,0.0385,0.0385,0.0397,0.0397,0.0437,0.0394,0.0394,0.0394,0.0394,0,0.0448,0.0483,0.0524,0.0551,0.0608,0.0622,0.0688,0.0705,0.0745,0.0801,0.0756,0.0784,0.0681,0.0641,0.0558,0.0487,0.0492,0.0407,0.0387,0.0431,0.0434,0.0394,0.0359,0.0393,0.0393,0.0393,0.0393,0,0.0466,0.0492,0.0549,0.0601,0.0622,0.0664,0.074,0.079,0.0812,0.0878,0.088,0.0868,0.0822,0.0717,0.0621,0.054,0.0454,0.0427,0.0491,0.0479,0.0424,0.0391,0.0383,0.0377,0.0387,0.0387,0.0387,0,0.0482,0.0513,0.0587,0.0628,0.0656,0.0721,0.0774,0.0822,0.0886,0.094,0.0978,0.0948,0.0957,0.082,0.0677,0.0544,0.0483,0.048,0.0453,0.0446,0.0394,0.0378,0.0373,0.0509,0.0511,0.0511,0.0512,0,0.0514,0.0539,0.0587,0.0674,0.0736,0.0815,0.0893,0.0954,0.1016,0.1074,0.1148,0.1157,0.1038,0.0951,0.0752,0.0646,0.0494,0.0492,0.0472,0.049,0.0487,0.0465,0.0491,0.052,0.0519,0.0518,0.0518,0.0518,0.0537,0.0578,0.0646,0.0726,0.0803,0.0902,0.0974,0.1064,0.1174,0.1268,0.1282,0.1325,0.1188,0.0946,0.0804,0.0593,0.0554,0.0527,0.0487,0.0471,0.0474,0.0521,0.053,0.0529,0.0529,0.0528,0.0528,0,0.057,0.0621,0.0696,0.0797,0.0881,0.0919,0.1051,0.113,0.1262,0.1364,0.1439,0.1433,0.1278,0.1065,0.0782,0.0632,0.0571,0.0541,0.0542,0.0533,0.0576,0.0591,0.0631,0.0631,0.0631,0.0631,0.0631,0.0631,0.0592,0.0665,0.0706,0.0844,0.0916,0.1037,0.1115,0.1235,0.1342,0.1478,0.1537,0.1565,0.1438,0.0998,0.0729,0.0647,0.0563,0.0526,0.0466,0.0509,0.0506,0.0502,0.0511,0.0533,0.0533,0.0478,0.0477,0.0477]}],[{"header":{"parameterUnit":"m.s-1","parameterCategory":2,"la1":30.2991,"la2":30.254,"lo1":-89.0895,"lo2":-89.0444,"dy":0.0017,"dx":0.0017,"nx":28,"ny":28,"refTime":"2024-05-01T03:00:00:Z","depth":"2","parameterNumber":2,"parameterNumberName":"U-component_of_CURRENTS"},"data":[0,0,0,0,0,0,0,0,0,0,0,0,0,0,0,0,0,0,0,0,0,0,0,0,0,0,0,0,0,0,0,0,0,0,0,0,0,0,0,0,0,0,0,0,0,0,0,0,0,0,0,0,0,0,0,0,0,0,0.1905,0.1905,0,0.1916,0.1916,0.1916,0.1909,0.1909,0.1909,0.1909,0.1974,0.1976,0.1978,0,0,0,0,0,0,0,0,0,0,0,0,0,0.1903,0.1903,0.1905,0.1905,0.1905,0.1916,0.1916,0.1916,0.1909,0.1909,0.1909,0.1909,0.1973,0.1976,0.1978,0,0,0,0,0,0,0,0,0,0,0,0,0,0.1906,0.1903,0.1905,0.1905,0.1905,0.1916,0.1916,0.1916,0.1909,0.1909,0.1909,0.1909,0.1973,0.1975,0.1978,0.2001,0,0,0.1987,0.1988,0,0,0,0,0,0,0,0,0.1906,0.1906,0.1904,0.1905,0.1905,0.1912,0.1939,0.1947,0.1909,0.1906,0.1909,0.1908,0.196,0.1963,0.1963,0.2004,0.2007,0.1987,0.1989,0.199,0.1991,0,0,0,0,0,0,0,0.1906,0.1906,0.1908,0.1905,0.1905,0.1912,0.1912,0.194,0.1934,0.1906,0.1906,0.191,0.196,0.196,0.1965,0.2008,0.1987,0.199,0.1991,0.1993,0.2075,0.2075,0,0,0,0,0,0,0.1906,0.1905,0.1907,0.1908,0.1906,0.1912,0.1912,0.1909,0.1932,0.1936,0.191,0.191,0.1956,0.1962,0.1967,0.2018,0.199,0.1993,0.1994,0.2074,0.2075,0.2076,0,0,0,0,0,0,0.1906,0.1906,0.1907,0.1909,0.1909,0.1913,0.1909,0.1909,0.1916,0.1935,0.1939,0.1917,0.1956,0.1963,0.1982,0.2019,0.1994,0.1997,0.2074,0.2075,0.2075,0.2105,0,0,0,0,0,0,0.1906,0.1906,0.1907,0.1908,0.1909,0.192,0.191,0.191,0.1919,0.1918,0.1943,0.1948,0.1956,0.1978,0.1985,0.2023,0.1999,0.2073,0.2074,0.2075,0.2103,0.2106,0.2109,0,0,0,0,0,0.1906,0.1908,0.1906,0.1907,0.1909,0.192,0.1922,0.1922,0.192,0.1926,0.193,0.1947,0.1989,0.198,0.1989,0.2028,0.2073,0.2074,0.2075,0.2102,0.2106,0.2109,0,0,0,0,0,0,0.1908,0.1908,0.1906,0.1908,0.1917,0.192,0.1927,0.1928,0.1936,0.1937,0.1949,0.1954,0.1993,0.1997,0.1986,0.2052,0.2037,0.204,0.2055,0.2059,0.2061,0.2049,0.2001,0,0,0,0,0,0.1909,0.191,0.1914,0.1917,0.1922,0.1926,0.1932,0.1934,0.194,0.1943,0.1958,0.1975,0.2004,0.2017,0.2042,0.2071,0.2069,0.2102,0.2105,0.2108,0.2102,0.2128,0.2133,0.2079,0.2079,0.2079,0,0,0.1911,0.1912,0.1912,0.1918,0.1924,0.1933,0.1929,0.1941,0.1951,0.1952,0.1971,0.1994,0.2015,0.2049,0.2068,0.2056,0.212,0.2109,0.2111,0.2104,0.2129,0.2135,0.2139,0.208,0.208,0.208,0,0,0.1914,0.1916,0.1917,0.1927,0.1939,0.1944,0.195,0.196,0.1967,0.1985,0.1996,0.2022,0.206,0.2078,0.2094,0.2126,0.2141,0.2149,0.2152,0.2178,0.2183,0.2187,0.2183,0.2187,0.2144,0.2144,0.2144,0,0.1918,0.1916,0.1922,0.193,0.1938,0.195,0.1959,0.1971,0.1986,0.1999,0.1994,0.2053,0.2071,0.2118,0.2125,0.2136,0.2142,0.214,0.2182,0.2187,0.219,0.2186,0.2189,0.2146,0.2146,0.2145,0.2145,0,0.192,0.1924,0.1929,0.1939,0.1953,0.1963,0.1981,0.1999,0.2011,0.2025,0.2072,0.2088,0.2121,0.2141,0.2141,0.2189,0.2182,0.219,0.2174,0.2198,0.2191,0.2194,0.2148,0.2147,0.2147,0.2146,0,0,0.1913,0.1926,0.1928,0.1932,0.1957,0.1966,0.1995,0.2023,0.2045,0.2069,0.2098,0.2142,0.2157,0.2173,0.2192,0.2205,0.2233,0.2207,0.2207,0.2203,0.2275,0.2203,0.2199,0.2258,0.2259,0.226,0.2257,0,0.1911,0.192,0.193,0.1945,0.1951,0.1978,0.2001,0.2033,0.2064,0.2097,0.2128,0.2166,0.2171,0.2192,0.2211,0.2238,0.2245,0.2232,0.2252,0.2252,0.2186,0.2201,0.2019,0.1996,0.226,0.2261,0.2261,0,0.1906,0.1912,0.1922,0.1943,0.195,0.1967,0.2011,0.2036,0.2093,0.212,0.2166,0.2191,0.223,0.2222,0.2268,0.2264,0.2267,0.2273,0.2274,0.2195,0.2185,0.2017,0.1992,0.2266,0.2266,0.2266,0.2265,0,0.1888,0.1906,0.191,0.1918,0.1948,0.1966,0.1991,0.2047,0.2076,0.2141,0.2168,0.2221,0.2249,0.2272,0.2287,0.2285,0.2321,0.2321,0.2252,0.2246,0.2086,0.2065,0.2339,0.2339,0.2339,0.2339,0.2339,0,0.1875,0.188,0.1903,0.1906,0.1923,0.1955,0.1989,0.2028,0.209,0.2122,0.218,0.2211,0.2265,0.2291,0.2297,0.2282,0.2333,0.2246,0.2244,0.2089,0.2069,0.2301,0.2297,0.2338,0.2339,0.2339,0.2339,0,0.185,0.1864,0.187,0.1901,0.1912,0.1928,0.1982,0.2008,0.2074,0.2119,0.2138,0.2216,0.2249,0.2282,0.2316,0.2285,0.2282,0.2262,0.2062,0.2035,0.2182,0.218,0.2175,0.2172,0.217,0.2168,0.2167,0,0.1833,0.1834,0.1859,0.1863,0.1877,0.1907,0.1925,0.1994,0.2026,0.211,0.2124,0.2182,0.2202,0.2225,0.2187,0.2168,0.2241,0.1975,0.1931,0.2169,0.2167,0.2168,0.2168,0.1728,0.1723,0.1719,0.1716,0,0.1805,0.1816,0.1822,0.1829,0.1844,0.1858,0.1894,0.1916,0.1988,0.2018,0.2061,0.2084,0.2106,0.2,0.1976,0.1946,0.1963,0.189,0.22,0.1801,0.1748,0.1747,0.1761,0.1679,0.1683,0.1686,0.1688,0.1689,0.1783,0.1777,0.1784,0.1781,0.1796,0.1795,0.1779,0.1816,0.1835,0.1846,0.1936,0.1894,0.1889,0.1759,0.1686,0.1619,0.1762,0.1663,0.1675,0.1692,0.1644,0.1591,0.1482,0.1484,0.1486,0.1488,0.149,0,0.1738,0.1733,0.1732,0.1714,0.1692,0.1729,0.1737,0.1698,0.1669,0.1697,0.1704,0.154,0.1446,0.1447,0.1277,0.125,0.1246,0.1198,0.1172,0.1208,0.1241,0.117,0.0882,0.088,0.0879,0.0877,0,0,0.1716,0.1686,0.1673,0.1607,0.1597,0.154,0.1525,0.1481,0.1473,0.1405,0.135,0.1425,0.1427,0.1154,0.1094,0.0958,0.1089,0.0922,0.1411,0.1421,0.1451,0.1509,0.144,0,0,0,0,0]},{"header":{"parameterUnit":"m.s-1","parameterCategory":2,"la1":30.2991,"la2":30.254,"lo1":-89.0895,"lo2":-89.0444,"dy":0.0017,"dx":0.0017,"nx":28,"ny":28,"refTime":"2024-05-01T03:00:00:Z","depth":"2","parameterNumber":3,"parameterNumberName":"V-component_of_CURRENTS"},"data":[0,0,0,0,0,0,0,0,0,0,0,0,0,0,0,0,0,0,0,0,0,0,0,0,0,0,0,0,0,0,0,0,0,0,0,0,0,0,0,0,0,0,0,0,0,0,0,0,0,0,0,0,0,0,0,0,0,0,0.0253,0.0253,0,0.0249,0.0249,0.0249,0.0236,0.0236,0.0235,0.0235,0.0197,0.0197,0.0196,0,0,0,0,0,0,0,0,0,0,0,0,0,0.0225,0.0226,0.0253,0.0253,0.0253,0.0249,0.0249,0.0249,0.0236,0.0236,0.0235,0.0235,0.0198,0.0197,0.0196,0,0,0,0,0,0,0,0,0,0,0,0,0,0.023,0.0226,0.0253,0.0247,0.0246,0.0249,0.0249,0.0249,0.0236,0.0236,0.0235,0.0235,0.0198,0.0197,0.0196,0.0196,0,0,0.0192,0.0192,0,0,0,0,0,0,0,0,0.023,0.0231,0.0248,0.0247,0.0246,0.0243,0.0225,0.023,0.0236,0.0239,0.0235,0.0235,0.021,0.0208,0.0208,0.0194,0.0193,0.0192,0.0191,0.0191,0.0191,0,0,0,0,0,0,0,0.023,0.0231,0.0251,0.0248,0.0247,0.0235,0.0236,0.0226,0.0226,0.0239,0.0238,0.0238,0.0209,0.0209,0.0207,0.0192,0.0192,0.0191,0.019,0.019,0.0191,0.0192,0,0,0,0,0,0,0.0233,0.0231,0.0251,0.0251,0.0238,0.0236,0.0237,0.0244,0.0227,0.0224,0.0239,0.0238,0.0211,0.0208,0.0205,0.0221,0.0191,0.019,0.0189,0.019,0.0191,0.0192,0,0,0,0,0,0,0.0233,0.0235,0.0251,0.0241,0.0242,0.0237,0.0245,0.0244,0.0246,0.0227,0.0224,0.0242,0.0211,0.0207,0.021,0.0218,0.0189,0.0188,0.019,0.0191,0.0192,0.024,0,0,0,0,0,0,0.0232,0.0235,0.0242,0.0241,0.0243,0.0259,0.0246,0.0244,0.0246,0.0245,0.0228,0.0224,0.021,0.0212,0.0209,0.0216,0.0187,0.0189,0.019,0.0191,0.0238,0.0243,0.0247,0,0,0,0,0,0.0231,0.0243,0.0242,0.0244,0.0252,0.026,0.026,0.0254,0.0247,0.0253,0.0247,0.0225,0.0218,0.0212,0.0208,0.0215,0.0188,0.019,0.0191,0.0236,0.0242,0.0247,0,0,0,0,0,0,0.0232,0.0243,0.0242,0.0256,0.026,0.0258,0.0263,0.0258,0.0258,0.0256,0.0237,0.0233,0.0237,0.0222,0.0216,0.022,0.0198,0.0199,0.0233,0.0239,0.0243,0.0254,0.0186,0,0,0,0,0,0.0236,0.025,0.0255,0.0266,0.0269,0.0267,0.0268,0.0266,0.0266,0.0265,0.0255,0.0245,0.0241,0.0237,0.0229,0.0234,0.0217,0.0235,0.024,0.0244,0.025,0.0238,0.0242,0.0198,0.0198,0.0197,0,0,0.0238,0.0247,0.0254,0.0267,0.0269,0.0284,0.0267,0.0275,0.0288,0.0261,0.0274,0.0261,0.0246,0.0253,0.0252,0.0241,0.0248,0.0246,0.025,0.0254,0.024,0.0244,0.0248,0.0199,0.0198,0.0198,0,0,0.0253,0.0259,0.0277,0.0285,0.0294,0.0296,0.0301,0.0303,0.0305,0.0317,0.0301,0.0299,0.029,0.0285,0.0281,0.0307,0.0274,0.0299,0.0331,0.032,0.0323,0.0326,0.031,0.0311,0.0302,0.0302,0.0302,0,0.0254,0.0281,0.0282,0.0301,0.0313,0.0305,0.0327,0.033,0.0333,0.0342,0.0327,0.0324,0.0308,0.0319,0.0328,0.0318,0.0303,0.0311,0.0326,0.0328,0.033,0.0314,0.0314,0.0304,0.0304,0.0304,0.0304,0,0.0284,0.0305,0.0316,0.0342,0.0353,0.0371,0.0377,0.0387,0.0386,0.0391,0.04,0.038,0.0379,0.0371,0.0358,0.0367,0.0349,0.0333,0.0311,0.0338,0.0318,0.0318,0.0308,0.0307,0.0306,0.0306,0,0,0.0291,0.033,0.0335,0.0358,0.0379,0.0395,0.0416,0.0441,0.0465,0.0454,0.0476,0.0465,0.0451,0.0444,0.0421,0.0409,0.0409,0.038,0.0378,0.0365,0.0379,0.0376,0.0375,0.0393,0.0393,0.0393,0.036,0,0.0315,0.0364,0.0376,0.0422,0.0449,0.0454,0.0479,0.0498,0.0509,0.0527,0.0504,0.0513,0.048,0.0476,0.0462,0.0424,0.041,0.0419,0.0355,0.0354,0.0347,0.0375,0.0387,0.036,0.0359,0.0359,0.0359,0,0.0344,0.0376,0.0426,0.0474,0.0486,0.051,0.0556,0.0579,0.0598,0.0605,0.0606,0.0584,0.057,0.053,0.0483,0.0489,0.0441,0.0405,0.0402,0.0383,0.035,0.0333,0.0359,0.0358,0.0358,0.0358,0.0358,0,0.0361,0.0412,0.0457,0.0473,0.0522,0.0545,0.0571,0.0604,0.064,0.0653,0.0669,0.0647,0.0634,0.0577,0.0505,0.0493,0.0444,0.0416,0.0367,0.0365,0.0356,0.0354,0.0379,0.0379,0.0379,0.0379,0.0379,0,0.0389,0.0425,0.0469,0.0496,0.0553,0.0573,0.0635,0.0657,0.0696,0.0744,0.0709,0.073,0.0644,0.0604,0.0528,0.0455,0.0462,0.0381,0.0362,0.0373,0.0373,0.0354,0.0352,0.0378,0.0378,0.0379,0.0379,0,0.0404,0.0432,0.0488,0.0544,0.0565,0.0607,0.068,0.0727,0.075,0.0805,0.0807,0.0798,0.075,0.0658,0.0568,0.0494,0.0416,0.0384,0.0403,0.0387,0.0336,0.0337,0.0328,0.0328,0.0327,0.0327,0.0327,0,0.0418,0.0448,0.0522,0.056,0.0589,0.0651,0.0701,0.0753,0.081,0.0853,0.0885,0.0851,0.0848,0.0718,0.0587,0.046,0.0428,0.0371,0.0351,0.0352,0.0334,0.0335,0.0335,0.0353,0.0353,0.0353,0.0353,0,0.0443,0.0467,0.0515,0.0594,0.0654,0.0728,0.0802,0.0856,0.0914,0.0957,0.1009,0.1005,0.0888,0.0779,0.06,0.0505,0.0393,0.0367,0.0369,0.0368,0.0374,0.0357,0.0357,0.0354,0.0354,0.0354,0.0354,0.0353,0.046,0.0496,0.0559,0.0634,0.0706,0.0797,0.086,0.0938,0.1028,0.109,0.1095,0.1083,0.0953,0.0736,0.0582,0.0405,0.0415,0.0337,0.0338,0.0338,0.0351,0.0356,0.0335,0.0335,0.0334,0.0334,0.0334,0,0.0483,0.0528,0.0596,0.0689,0.0765,0.0804,0.0925,0.0985,0.1083,0.1136,0.1174,0.1037,0.0923,0.0755,0.0511,0.037,0.0347,0.0303,0.0312,0.0314,0.0315,0.0326,0.0303,0.0303,0.0302,0.0302,0,0,0.0497,0.0559,0.0596,0.0719,0.0785,0.0893,0.0962,0.1049,0.1115,0.116,0.1153,0.1156,0.0973,0.0784,0.0597,0.0453,0.0407,0.0411,0.0454,0.049,0.0492,0.0356,0.0378,0,0,0,0,0]}],[{"header":{"parameterUnit":"m.s-1","parameterCategory":2,"la1":30.2991,"la2":30.254,"lo1":-89.0895,"lo2":-89.0444,"dy":0.0017,"dx":0.0017,"nx":28,"ny":28,"refTime":"2024-05-01T03:00:00:Z","depth":"4","parameterNumber":2,"parameterNumberName":"U-component_of_CURRENTS"},"data":[0,0,0,0,0,0,0,0,0,0,0,0,0,0,0,0,0,0,0,0,0,0,0,0,0,0,0,0,0,0,0,0,0,0,0,0,0,0,0,0,0,0,0,0,0,0,0,0,0,0,0,0,0,0,0,0,0,0,0.1274,0.1274,0,0.128,0.128,0.128,0.1298,0.1299,0.1299,0.13,0.1291,0.129,0.1289,0,0,0,0,0,0,0,0,0,0,0,0,0,0.1245,0.1245,0.1274,0.1274,0.1275,0.1281,0.128,0.128,0.1298,0.1299,0.13,0.13,0.1291,0.129,0.1289,0,0,0,0,0,0,0,0,0,0,0,0,0,0.1252,0.1246,0.1274,0.1287,0.1288,0.1281,0.128,0.128,0.1298,0.1299,0.13,0.1301,0.1291,0.129,0.1289,0.1259,0,0,0.1285,0.1284,0,0,0,0,0,0,0,0,0.1252,0.1253,0.1285,0.1286,0.1288,0.1293,0.1267,0.1273,0.1297,0.129,0.13,0.1301,0.1291,0.129,0.1284,0.1259,0.1258,0.1285,0.1284,0.1283,0.1283,0,0,0,0,0,0,0,0.1251,0.1252,0.1273,0.1285,0.1287,0.1282,0.1284,0.1268,0.1282,0.1291,0.1293,0.1299,0.1292,0.1285,0.1284,0.1258,0.1285,0.1283,0.1283,0.1282,0.133,0.1332,0,0,0,0,0,0,0.1258,0.1252,0.1273,0.1274,0.1276,0.1282,0.1284,0.1287,0.1282,0.1284,0.1298,0.13,0.1287,0.1286,0.1284,0.1326,0.1283,0.1282,0.1281,0.1328,0.1331,0.1333,0,0,0,0,0,0,0.1257,0.1259,0.1273,0.1266,0.1268,0.1282,0.1285,0.1287,0.1309,0.1289,0.129,0.1322,0.1288,0.1286,0.1301,0.1323,0.1281,0.128,0.1326,0.1329,0.1332,0.136,0,0,0,0,0,0,0.1256,0.1259,0.1274,0.1266,0.1268,0.1286,0.1284,0.1286,0.1311,0.1314,0.1309,0.1307,0.1289,0.1303,0.13,0.132,0.1279,0.1323,0.1327,0.1331,0.1357,0.1364,0.137,0,0,0,0,0,0.1255,0.1266,0.1275,0.1278,0.1285,0.1287,0.1287,0.1298,0.1311,0.1321,0.1328,0.1309,0.1327,0.1303,0.1298,0.1319,0.1321,0.1326,0.133,0.1354,0.1363,0.137,0,0,0,0,0,0,0.1259,0.1269,0.1278,0.1292,0.13,0.1292,0.1307,0.1313,0.1325,0.1337,0.132,0.1319,0.1343,0.1335,0.131,0.1352,0.1327,0.1331,0.1346,0.1354,0.1361,0.1368,0.1278,0,0,0,0,0,0.1268,0.1283,0.1287,0.1302,0.1309,0.1314,0.1322,0.1329,0.1334,0.1342,0.134,0.1348,0.1353,0.1358,0.1358,0.1369,0.137,0.1389,0.1395,0.1401,0.1408,0.1435,0.1444,0.1348,0.1348,0.1348,0,0,0.1274,0.1283,0.1293,0.1306,0.1313,0.1321,0.1321,0.1341,0.1353,0.1337,0.1362,0.1367,0.1364,0.1381,0.1393,0.1379,0.1431,0.1407,0.1411,0.1415,0.1441,0.145,0.1458,0.1351,0.1351,0.135,0,0,0.1283,0.1304,0.1317,0.1326,0.1346,0.1347,0.136,0.1369,0.1384,0.1403,0.1403,0.1426,0.1429,0.1431,0.1432,0.1479,0.1465,0.1491,0.1524,0.155,0.1558,0.1564,0.1576,0.1584,0.1494,0.1494,0.1494,0,0.1294,0.1305,0.1321,0.1332,0.1343,0.1362,0.1373,0.1385,0.1401,0.1416,0.1423,0.1456,0.1452,0.1472,0.1496,0.1491,0.1504,0.1484,0.1557,0.1563,0.1569,0.158,0.1588,0.1496,0.1496,0.1495,0.1495,0,0.1299,0.132,0.1329,0.135,0.1364,0.1379,0.1397,0.1423,0.1448,0.1459,0.1501,0.1504,0.1526,0.1535,0.1527,0.1575,0.1569,0.1558,0.1527,0.158,0.1589,0.1596,0.1499,0.1498,0.1497,0.1497,0,0,0.1286,0.1326,0.1332,0.1345,0.1377,0.1384,0.1419,0.1446,0.1475,0.1507,0.1542,0.1566,0.1585,0.159,0.1591,0.1617,0.1668,0.1615,0.1615,0.1612,0.1727,0.1588,0.1583,0.1673,0.1675,0.1676,0.1713,0,0.1286,0.131,0.1331,0.1357,0.1368,0.1402,0.1427,0.1462,0.1498,0.1538,0.1567,0.1601,0.16,0.1621,0.165,0.1666,0.1691,0.1659,0.169,0.169,0.1548,0.1588,0.1681,0.1719,0.172,0.1722,0.1722,0,0.1275,0.1295,0.1322,0.136,0.137,0.1394,0.1447,0.1474,0.1535,0.1568,0.1618,0.1639,0.1689,0.1682,0.174,0.1723,0.1736,0.1744,0.1745,0.161,0.1565,0.1658,0.1736,0.1735,0.1734,0.1733,0.1732,0,0.1245,0.1285,0.1309,0.1322,0.1369,0.14,0.1433,0.1491,0.1523,0.16,0.1633,0.1689,0.1727,0.176,0.1781,0.1774,0.1835,0.1818,0.1703,0.1693,0.1793,0.1785,0.1861,0.1861,0.1861,0.1861,0.1861,0,0.1218,0.1239,0.1305,0.1316,0.135,0.1393,0.1441,0.1486,0.1555,0.1587,0.1654,0.168,0.1754,0.1789,0.1802,0.1769,0.1853,0.1713,0.1695,0.1805,0.1799,0.1797,0.1789,0.1862,0.1862,0.1862,0.1862,0,0.1173,0.1217,0.1247,0.1313,0.1337,0.1366,0.1443,0.147,0.1549,0.1596,0.1624,0.17,0.1735,0.178,0.1831,0.1776,0.1769,0.1738,0.1854,0.1842,0.1606,0.16,0.1607,0.1603,0.1599,0.1596,0.1593,0,0.1146,0.1162,0.124,0.1262,0.1298,0.1352,0.1381,0.1463,0.1491,0.1583,0.1591,0.166,0.1693,0.1656,0.1714,0.1715,0.1696,0.1677,0.1638,0.1599,0.1581,0.1581,0.158,0.1587,0.1586,0.1585,0.1584,0,0.1097,0.1142,0.1171,0.1218,0.1259,0.1288,0.1341,0.1352,0.1434,0.1517,0.1518,0.1522,0.1552,0.1573,0.1584,0.1585,0.1678,0.1636,0.1643,0.1607,0.1574,0.156,0.1564,0.157,0.1572,0.1573,0.1574,0,0.1067,0.1077,0.1127,0.1153,0.1202,0.1205,0.1242,0.1263,0.1299,0.1397,0.1395,0.1461,0.1539,0.1505,0.1517,0.15,0.1473,0.1417,0.1435,0.1451,0.1378,0.1312,0.1214,0,0,0,0,0,0.1026,0.1026,0.1052,0.107,0.1113,0.114,0.1201,0.1238,0.1317,0.128,0.1333,0.1349,0.1344,0.1383,0.1334,0.1443,0.1483,0.1377,0.143,0.1496,0.1511,0.1438,0,0,0,0,0,0,0.0999,0.1026,0.1024,0.0994,0.0992,0.1023,0.1061,0.1114,0.11,0.1188,0.1201,0.1257,0.1287,0.1362,0.1307,0.1316,0.1316,0.1422,0.1418,0.1487,0.1501,0.1514,0.1444,0,0,0,0,0]},{"header":{"parameterUnit":"m.s-1","parameterCategory":2,"la1":30.2991,"la2":30.254,"lo1":-89.0895,"lo2":-89.0444,"dy":0.0017,"dx":0.0017,"nx":28,"ny":28,"refTime":"2024-05-01T03:00:00:Z","depth":"4","parameterNumber":3,"parameterNumberName":"V-component_of_CURRENTS"},"data":[0,0,0,0,0,0,0,0,0,0,0,0,0,0,0,0,0,0,0,0,0,0,0,0,0,0,0,0,0,0,0,0,0,0,0,0,0,0,0,0,0,0,0,0,0,0,0,0,0,0,0,0,0,0,0,0,0,0,0.0235,0.0235,0,0.025,0.025,0.025,0.0258,0.0258,0.0257,0.0257,0.0278,0.0279,0.0279,0,0,0,0,0,0,0,0,0,0,0,0,0,0.0204,0.0204,0.0235,0.0235,0.0235,0.025,0.025,0.0251,0.0258,0.0258,0.0257,0.0257,0.0278,0.0279,0.028,0,0,0,0,0,0,0,0,0,0,0,0,0,0.0218,0.0204,0.0235,0.024,0.0241,0.025,0.025,0.0251,0.0258,0.0258,0.0257,0.0257,0.0278,0.0279,0.028,0.0287,0,0,0.0282,0.0283,0,0,0,0,0,0,0,0,0.0218,0.022,0.0239,0.024,0.0241,0.0251,0.0247,0.0263,0.0258,0.0252,0.0257,0.0257,0.0269,0.0271,0.0275,0.0288,0.0289,0.0283,0.0283,0.0284,0.0284,0,0,0,0,0,0,0,0.0217,0.0219,0.0242,0.024,0.024,0.0238,0.0241,0.025,0.0262,0.0252,0.0253,0.0253,0.027,0.0274,0.0275,0.029,0.0283,0.0283,0.0284,0.0284,0.0312,0.0312,0,0,0,0,0,0,0.0214,0.0218,0.0241,0.0242,0.0228,0.0239,0.0242,0.0248,0.0262,0.0263,0.0254,0.0254,0.0272,0.0274,0.0276,0.0304,0.0283,0.0284,0.0285,0.0312,0.0312,0.0313,0,0,0,0,0,0,0.0213,0.0216,0.0241,0.0229,0.0232,0.024,0.0247,0.0249,0.0258,0.0262,0.0264,0.0261,0.0272,0.0275,0.0291,0.0304,0.0285,0.0286,0.0312,0.0312,0.0312,0.0349,0,0,0,0,0,0,0.0213,0.0216,0.0223,0.023,0.0233,0.0252,0.0248,0.0249,0.0257,0.0258,0.0269,0.0271,0.0273,0.0289,0.0292,0.0305,0.0286,0.0312,0.0312,0.0312,0.0347,0.035,0.0353,0,0,0,0,0,0.0212,0.0222,0.0223,0.0226,0.0241,0.0252,0.0254,0.0259,0.0258,0.0266,0.0273,0.0271,0.0293,0.0291,0.0293,0.0307,0.0311,0.0312,0.0312,0.0346,0.035,0.0353,0,0,0,0,0,0,0.0211,0.0224,0.0225,0.0239,0.0247,0.0253,0.0261,0.0263,0.0274,0.0277,0.0279,0.0281,0.0299,0.0295,0.0293,0.0314,0.03,0.0301,0.0324,0.0328,0.0331,0.0337,0.0287,0,0,0,0,0,0.0214,0.0228,0.0235,0.0247,0.0251,0.0257,0.0262,0.0266,0.0275,0.028,0.0287,0.0293,0.0302,0.0309,0.0315,0.0331,0.0318,0.0338,0.0341,0.0343,0.0349,0.0338,0.0341,0.0314,0.0314,0.0314,0,0,0.0217,0.0226,0.0233,0.0248,0.0254,0.0269,0.026,0.0273,0.0288,0.028,0.0306,0.0305,0.0307,0.0325,0.0332,0.0326,0.0343,0.0344,0.0346,0.0351,0.0339,0.0342,0.0344,0.0314,0.0314,0.0314,0,0,0.0229,0.0237,0.0253,0.0262,0.0275,0.0281,0.0285,0.0296,0.0304,0.0324,0.0322,0.0329,0.0345,0.0349,0.0352,0.0372,0.0357,0.0372,0.0395,0.0385,0.0387,0.0389,0.0372,0.0372,0.0374,0.0374,0.0374,0,0.0231,0.0255,0.0258,0.0276,0.0289,0.0288,0.0309,0.0317,0.0333,0.0346,0.0337,0.0357,0.0357,0.0379,0.0384,0.038,0.0368,0.0386,0.0389,0.0391,0.0392,0.0374,0.0373,0.0376,0.0376,0.0375,0.0375,0,0.0256,0.0276,0.0286,0.0312,0.0325,0.0343,0.0354,0.0368,0.0375,0.0385,0.0406,0.04,0.0412,0.041,0.0406,0.0418,0.0404,0.0394,0.0383,0.0397,0.0377,0.0376,0.0378,0.0378,0.0377,0.0377,0,0,0.0258,0.0297,0.0302,0.0324,0.0348,0.0364,0.0389,0.0417,0.0442,0.0444,0.0469,0.0474,0.0467,0.0469,0.0458,0.0449,0.0443,0.0429,0.0427,0.0415,0.0415,0.0391,0.0387,0.0434,0.0434,0.0435,0.0396,0,0.0279,0.0322,0.0337,0.0381,0.0405,0.0417,0.0445,0.0468,0.0483,0.0505,0.0495,0.0513,0.0491,0.0495,0.0483,0.0457,0.0443,0.0454,0.04,0.0398,0.0379,0.0386,0.0435,0.0395,0.0395,0.0395,0.0394,0,0.0301,0.033,0.0377,0.0426,0.0438,0.0464,0.0512,0.0537,0.0562,0.0573,0.0581,0.057,0.0563,0.0533,0.0495,0.0504,0.0465,0.0436,0.0433,0.0399,0.0373,0.0378,0.0392,0.0392,0.0392,0.0393,0.0393,0,0.0309,0.036,0.0401,0.0418,0.0469,0.0495,0.0524,0.0561,0.0594,0.0615,0.0629,0.0619,0.0611,0.0566,0.0506,0.0502,0.0453,0.0437,0.0376,0.0373,0.039,0.0389,0.0403,0.0403,0.0404,0.0404,0.0404,0,0.0328,0.0362,0.0411,0.0435,0.0491,0.0518,0.0577,0.0602,0.0642,0.0681,0.0664,0.0675,0.0619,0.0582,0.0521,0.0448,0.0463,0.0382,0.0364,0.0405,0.0406,0.0389,0.0388,0.0402,0.0402,0.0403,0.0403,0,0.0332,0.0363,0.0415,0.0474,0.0498,0.0538,0.0612,0.0654,0.0683,0.0726,0.0731,0.0722,0.0675,0.0609,0.0533,0.0469,0.0399,0.0366,0.0416,0.0401,0.032,0.0321,0.0295,0.0293,0.0293,0.0292,0.0291,0,0.0338,0.0365,0.044,0.0476,0.0507,0.057,0.0617,0.0672,0.0716,0.0752,0.077,0.074,0.0717,0.0596,0.0524,0.0406,0.0382,0.0335,0.0326,0.0325,0.031,0.0313,0.0315,0.029,0.0289,0.0289,0.0289,0,0.0349,0.0375,0.0419,0.049,0.0548,0.0615,0.0682,0.0715,0.0771,0.0793,0.0793,0.0733,0.0679,0.059,0.05,0.0414,0.0362,0.0325,0.0326,0.0317,0.0319,0.0306,0.0309,0.0286,0.0286,0.0286,0.0287,0,0.0354,0.0382,0.0438,0.0503,0.0574,0.0641,0.0678,0.0726,0.077,0.0803,0.0801,0.0744,0.072,0.0594,0.0514,0.0427,0.0396,0.0347,0.0346,0.0349,0.0373,0.0383,0.0358,0,0,0,0,0,0.0357,0.0391,0.0448,0.052,0.0589,0.0634,0.0716,0.0749,0.0794,0.0793,0.0799,0.0745,0.0626,0.0588,0.0495,0.049,0.038,0.0376,0.0322,0.0267,0.0271,0.0288,0,0,0,0,0,0,0.036,0.0409,0.0442,0.0523,0.057,0.065,0.0705,0.0737,0.0742,0.0766,0.0714,0.0692,0.059,0.0672,0.0482,0.046,0.0405,0.0331,0.0328,0.0265,0.0269,0.0272,0.029,0,0,0,0,0]}]]